FW0047 Weather Reports


time (UTC)temp
C
wind
direction
speed
KPH
gust
KPH
rain 1hr
cm
rain 24hr
cm
rain mn
cm
humidity
%
barometer
mb
20260507065013 11 5 6.4 12.9 0.00 0.00 0.00 89 1021.1
20260507064512 12 25 4.8 17.7 0.00 0.00 0.00 89 1021.1
20260507064015 12 346 9.7 20.9 0.00 0.00 0.00 89 1021.2
20260507063512 12 343 14.5 25.7 0.00 0.00 0.00 89 1021.2
20260507063011 11 355 14.5 25.7 0.00 0.00 0.00 89 1021.2
20260507062516 12 5 9.7 19.3 0.00 0.00 0.00 90 1021.2
20260507062011 12 15 11.3 19.3 0.00 0.00 0.00 90 1021.2
20260507061513 12 9 9.7 16.1 0.00 0.00 0.00 90 1021.3
20260507061011 12 19 8.0 14.5 0.00 0.00 0.00 89 1021.3
20260507060510 12 26 3.2 12.9 0.00 0.00 0.00 90 1021.3
20260507060010 11 26 6.4 11.3 0.00 0.00 0.00 90 1021.3
20260507055510 11 348 6.4 12.9 0.00 0.00 0.00 90 1021.4
20260507055009 12 23 3.2 16.1 0.00 0.00 0.00 90 1021.4
20260507054510 12 15 8.0 16.1 0.00 0.00 0.00 90 1021.4
20260507054009 12 339 9.7 14.5 0.00 0.00 0.00 91 1021.4
20260507053509 11 21 4.8 19.3 0.00 0.00 0.00 90 1021.4
20260507053010 11 332 9.7 19.3 0.00 0.00 0.00 90 1021.5
20260507052508 12 341 8.0 16.1 0.00 0.00 0.00 91 1021.5
20260507052009 12 346 9.7 16.1 0.00 0.00 0.00 91 1021.5
20260507051509 12 339 11.3 14.5 0.00 0.00 0.00 91 1021.5
20260507051009 12 344 8.0 14.5 0.00 0.00 0.00 91 1021.5
20260507050509 12 331 9.7 14.5 0.00 0.00 0.00 92 1021.5
20260507050024 11 334 8.0 12.9 0.00 0.00 0.00 92 1021.5
20260507045514 12 344 3.2 14.5 0.00 0.00 0.00 92 1021.4
20260507045008 12 347 11.3 16.1 0.00 0.00 0.00 92 1021.5
20260507044508 11 344 4.8 17.7 0.00 0.00 0.00 92 1021.5
20260507044010 12 339 12.9 17.7 0.00 0.00 0.00 92 1021.5
20260507043507 11 346 11.3 20.9 0.00 0.00 0.00 92 1021.5
20260507043007 11 333 14.5 20.9 0.00 0.00 0.00 92 1021.5
20260507042507 11 355 16.1 20.9 0.00 0.00 0.00 93 1021.5
20260507042007 11 342 16.1 22.5 0.00 0.00 0.00 93 1021.5
20260507041520 12 336 16.1 22.5 0.00 0.00 0.00 93 1021.5
20260507041005 12 337 12.9 17.7 0.00 0.00 0.00 93 1021.5
20260507040505 12 338 8.0 19.3 0.00 0.00 0.00 93 1021.4
20260507040005 12 342 11.3 19.3 0.00 0.00 0.00 93 1021.5
20260507035504 11 340 11.3 17.7 0.00 0.00 0.00 93 1021.5
20260507035005 12 348 9.7 17.7 0.00 0.00 0.00 93 1021.4
20260507034505 11 350 12.9 17.7 0.00 0.00 0.00 93 1021.4
20260507034004 11 339 12.9 19.3 0.00 0.00 0.00 93 1021.4
20260507033504 11 333 14.5 19.3 0.00 0.00 0.00 93 1021.3
20260507033003 11 338 14.5 19.3 0.00 0.00 0.00 93 1021.3
20260507032502 11 346 12.9 19.3 0.00 0.00 0.00 94 1021.3
20260507032002 11 344 11.3 19.3 0.00 0.00 0.00 94 1021.3
20260507031506 11 351 14.5 19.3 0.00 0.00 0.00 94 1021.3
20260507031002 11 337 8.0 14.5 0.00 0.00 0.00 94 1021.2
20260507030507 11 340 9.7 14.5 0.00 0.00 0.00 94 1021.2
20260507030003 11 345 8.0 12.9 0.00 0.00 0.00 94 1021.2
20260507025502 11 324 8.0 14.5 0.00 0.00 0.00 94 1021.2
20260507025001 11 330 9.7 14.5 0.00 0.00 0.00 94 1021.2
20260507024504 11 329 9.7 12.9 0.00 0.00 0.00 94 1021.2
20260507024001 11 333 9.7 14.5 0.00 0.00 0.00 94 1021.1
20260507023500 11 335 9.7 14.5 0.00 0.00 0.00 94 1021.1
20260507023100 11 327 9.7 14.5 0.00 0.00 0.00 93 1021.2
20260507023000 11 327 9.7 16.1 0.00 0.00 0.00 93 1021.1
20260507022600 11 345 6.4 16.1 0.00 0.00 0.00 93 1021.1
20260507022101 11 342 12.9 16.1 0.00 0.00 0.00 93 1021.2
20260507021600 11 334 6.4 12.9 0.00 0.00 0.00 93 1021.1
20260507021100 11 334 8.0 12.9 0.00 0.00 0.00 93 1021.2
20260507020559 11 338 8.0 12.9 0.00 0.00 0.00 93 1021.2
20260507020119 11 328 11.3 12.9 0.00 0.00 0.00 93 1021.2
20260507015559 11 324 9.7 12.9 0.00 0.00 0.00 93 1021.2
20260507015059 11 320 6.4 12.9 0.00 0.00 0.00 93 1021.2
20260507014602 11 321 8.0 12.9 0.00 0.00 0.00 92 1021.3
20260507014058 11 317 8.0 12.9 0.00 0.00 0.00 92 1021.3
20260507013557 11 315 8.0 9.7 0.00 0.00 0.00 92 1021.3
20260507013058 11 315 6.4 8.0 0.00 0.00 0.00 92 1021.3
20260507012602 11 315 6.4 8.0 0.00 0.00 0.00 92 1021.4
20260507012058 12 315 6.4 8.0 0.00 0.00 0.00 92 1021.4
20260507011558 12 315 4.8 6.4 0.00 0.00 0.00 92 1021.4
20260507011058 12 315 4.8 8.0 0.00 0.00 0.00 92 1021.4
20260507010558 12 315 4.8 8.0 0.00 0.00 0.00 92 1021.5
20260507010110 11 315 6.4 9.7 0.00 0.00 0.00 92 1021.5
20260507005558 12 315 6.4 9.7 0.00 0.00 0.00 92 1021.5
20260507005057 11 314 6.4 9.7 0.00 0.00 0.00 92 1021.5
20260507004557 12 313 6.4 9.7 0.00 0.00 0.00 92 1021.5
20260507004056 11 307 6.4 8.0 0.00 0.00 0.00 92 1021.5
20260507003557 11 302 6.4 9.7 0.00 0.00 0.00 92 1021.6
20260507003056 11 300 6.4 9.7 0.00 0.00 0.00 92 1021.5
20260507002556 11 300 6.4 8.0 0.00 0.00 0.00 92 1021.6
20260507002057 11 298 6.4 11.3 0.00 0.00 0.00 92 1021.6
20260507001603 11 298 6.4 11.3 0.00 0.00 0.00 92 1021.6
20260507001056 12 303 6.4 9.7 0.00 0.00 0.00 92 1021.6
20260507000559 11 304 8.0 12.9 0.00 0.00 0.00 92 1021.6
20260507000058 11 304 8.0 12.9 0.00 0.00 0.00 92 1021.6
20260506235556 11 302 8.0 12.9 0.00 0.00 0.00 92 1021.7
20260506235057 11 300 9.7 12.9 0.00 0.00 0.00 92 1021.7
20260506234559 11 298 9.7 12.9 0.00 0.00 0.00 92 1021.7
20260506234055 11 297 8.0 12.9 0.00 0.00 0.00 92 1021.7
20260506233556 11 300 9.7 12.9 0.00 0.00 0.00 92 1021.7
20260506233055 11 296 11.3 14.5 0.00 0.00 0.00 92 1021.8
20260506232554 11 295 11.3 14.5 0.00 0.00 0.00 92 1021.7
20260506232054 11 292 12.9 16.1 0.00 0.00 0.00 91 1021.8
20260506231608 11 302 12.9 16.1 0.00 0.00 0.00 91 1021.8
20260506231054 12 296 12.9 14.5 0.00 0.00 0.00 91 1021.8
20260506230553 12 284 11.3 14.5 0.00 0.00 0.00 91 1021.8
20260506230109 12 287 11.3 14.5 0.00 0.00 0.00 91 1021.8
20260506225554 12 304 11.3 16.1 0.00 0.00 0.00 91 1021.9
20260506225054 12 296 12.9 16.1 0.00 0.00 0.00 91 1021.9
20260506224554 12 303 11.3 12.9 0.00 0.00 0.00 91 1022.0
20260506224053 12 302 9.7 12.9 0.00 0.00 0.00 91 1022.0
20260506223553 12 307 11.3 12.9 0.00 0.00 0.00 90 1022.1
20260506223055 12 298 11.3 14.5 0.00 0.00 0.00 90 1022.1
20260506222553 12 304 9.7 14.5 0.00 0.00 0.00 90 1022.1
20260506222055 12 305 11.3 16.1 0.00 0.00 0.00 90 1022.1
20260506221610 12 306 12.9 16.1 0.00 0.00 0.00 90 1022.1
20260506221051 12 309 11.3 14.5 0.00 0.00 0.00 90 1022.1
20260506220551 12 292 11.3 14.5 0.00 0.00 0.00 90 1022.0
20260506220105 12 292 11.3 14.5 0.00 0.00 0.00 90 1022.0
20260506215550 12 296 11.3 16.1 0.00 0.00 0.00 89 1022.0
20260506215050 12 300 12.9 16.1 0.00 0.00 0.00 89 1022.0
20260506214551 12 306 12.9 16.1 0.00 0.00 0.00 89 1021.9
20260506214049 12 304 12.9 16.1 0.00 0.00 0.00 89 1021.8
20260506213548 12 297 11.3 12.9 0.00 0.00 0.00 88 1021.9
20260506213104 12 299 11.3 14.5 0.00 0.00 0.00 88 1021.9
20260506212548 12 283 11.3 14.5 0.00 0.00 0.00 89 1021.9
20260506212049 12 295 9.7 12.9 0.00 0.00 0.00 88 1021.8
20260506211548 12 290 9.7 12.9 0.00 0.00 0.00 88 1021.9
20260506211048 12 300 8.0 12.9 0.00 0.00 0.00 88 1021.8
20260506210548 12 300 9.7 14.5 0.00 0.00 0.00 88 1021.9
20260506210055 12 296 11.3 14.5 0.00 0.00 0.00 87 1021.8
20260506205547 12 296 11.3 12.9 0.00 0.00 0.00 86 1021.9
20260506205049 13 294 9.7 12.9 0.00 0.00 0.00 86 1021.8
20260506204547 13 284 9.7 12.9 0.00 0.00 0.00 86 1021.8
20260506204045 13 276 6.4 11.3 0.00 0.00 0.00 87 1021.7
20260506203547 13 269 3.2 12.9 0.00 0.00 0.00 87 1021.7
20260506203045 13 267 9.7 12.9 0.00 0.00 0.00 87 1021.7
20260506202545 13 275 9.7 12.9 0.00 0.00 0.00 87 1021.6
20260506202045 13 288 8.0 11.3 0.00 0.00 0.00 87 1021.6
20260506201548 13 279 6.4 11.3 0.00 0.00 0.00 86 1021.6
20260506201048 13 284 8.0 11.3 0.00 0.00 0.00 87 1021.6
20260506200546 13 284 9.7 11.3 0.00 0.00 0.00 86 1021.6
20260506200044 13 275 8.0 11.3 0.00 0.00 0.00 87 1021.7
20260506195548 13 266 4.8 9.7 0.00 0.00 0.00 88 1021.7
20260506195042 13 269 3.2 6.4 0.00 0.00 0.00 88 1021.7
20260506194541 13 269 1.6 9.7 0.00 0.00 0.00 88 1021.7
20260506194041 12 273 3.2 9.7 0.00 0.00 0.00 87 1021.7
20260506193540 12 272 4.8 9.7 0.00 0.00 0.00 88 1021.7
20260506193040 12 272 4.8 11.3 0.00 0.00 0.00 88 1021.7
20260506192539 12 274 6.4 11.3 0.00 0.00 0.00 88 1021.7
20260506192039 12 276 6.4 12.9 0.00 0.00 0.00 88 1021.6
20260506191539 12 273 6.4 12.9 0.00 0.00 0.00 89 1021.6
20260506191039 12 276 9.7 12.9 0.00 0.00 0.00 88 1021.6
20260506190542 12 281 9.7 12.9 0.00 0.00 0.00 88 1021.6
20260506190040 12 294 9.7 12.9 0.00 0.00 0.00 88 1021.7
20260506185538 12 296 9.7 14.5 0.00 0.00 0.00 88 1021.6
20260506185038 12 296 11.3 16.1 0.00 0.00 0.00 87 1021.7
20260506184542 12 286 11.3 16.1 0.00 0.00 0.00 88 1021.6
20260506184037 12 302 9.7 12.9 0.00 0.00 0.00 88 1021.5
20260506183539 12 290 8.0 12.9 0.00 0.00 0.00 87 1021.5
20260506183038 12 288 9.7 14.5 0.00 0.00 0.00 87 1021.5
20260506182536 12 291 9.7 14.5 0.00 0.00 0.00 87 1021.5
20260506182036 12 278 9.7 12.9 0.00 0.00 0.00 87 1021.5
20260506181538 12 275 9.7 12.9 0.00 0.00 0.00 87 1021.4
20260506181035 12 265 0.0 1.6 0.00 0.00 0.00 87 1021.3
20260506180535 13 262 0.0 3.2 0.00 0.00 0.00 87 1021.3
20260506180039 12 250 0.0 6.4 0.00 0.00 0.00 88 1021.3
20260506175532 12 248 0.0 6.4 0.00 0.00 0.00 88 1021.2
20260506175032 12 244 3.2 6.4 0.00 0.00 0.00 87 1021.1
20260506174535 12 277 0.0 4.8 0.00 0.00 0.00 88 1021.0
20260506174031 12 200 0.0 6.4 0.00 0.00 0.00 88 1021.1
20260506173531 12 207 1.6 6.4 0.00 0.00 0.00 88 1020.9
20260506173031 12 206 1.6 6.4 0.00 0.00 0.00 87 1020.9
20260506172529 12 213 0.0 4.8 0.00 0.00 0.00 88 1020.9
20260506172033 12 209 0.0 8.0 0.00 0.00 0.00 88 1020.9
20260506171539 12 207 1.6 8.0 0.00 0.00 0.00 88 1020.8
20260506171029 12 221 1.6 6.4 0.00 0.00 0.00 88 1020.9
20260506170530 12 286 0.0 3.2 0.00 0.00 0.00 88 1020.8
20260506170027 12 284 0.0 3.2 0.00 0.00 0.00 88 1020.8
20260506165530 12 259 0.0 6.4 0.00 0.00 0.00 89 1020.7
20260506165029 12 259 1.6 6.4 0.00 0.00 0.00 88 1020.7
20260506164526 12 286 0.0 3.2 0.00 0.00 0.00 88 1020.7
20260506164025 12 286 0.0 3.2 0.00 0.00 0.00 88 1020.8
20260506163526 12 279 0.0 3.2 0.00 0.00 0.00 89 1020.7
20260506163025 12 281 0.0 1.6 0.00 0.00 0.00 89 1020.7
20260506162527 12 279 0.0 1.6 0.00 0.00 0.00 89 1020.6
20260506162024 12 278 0.0 1.6 0.00 0.00 0.00 89 1020.7
20260506161525 12 278 0.0 3.2 0.00 0.00 0.00 89 1020.6
20260506161023 12 268 0.0 3.2 0.00 0.00 0.00 89 1020.5
20260506160522 12 253 0.0 9.7 0.00 0.00 0.00 89 1020.6
20260506160022 12 207 3.2 9.7 0.00 0.00 0.00 89 1020.4
20260506155523 12 278 1.6 6.4 0.00 0.00 0.00 89 1020.6
20260506155022 12 298 0.0 6.4 0.00 0.00 0.00 90 1020.5
20260506154522 11 304 3.2 6.4 0.00 0.00 0.00 89 1020.5
20260506154022 12 305 3.2 4.8 0.00 0.00 0.00 89 1020.4
20260506153520 12 305 0.0 4.8 0.00 0.00 0.00 89 1020.3
20260506153020 12 305 1.6 6.4 0.00 0.00 0.00 89 1020.2
20260506152520 12 306 3.2 6.4 0.00 0.00 0.00 89 1020.3
20260506152018 12 306 1.6 4.8 0.00 0.00 0.00 90 1020.1
20260506151523 12 306 0.0 0.0 0.00 0.00 0.00 90 1020.0
20260506151018 12 306 0.0 1.6 0.00 0.00 0.00 90 1019.9
20260506150518 12 306 0.0 8.0 0.00 0.00 0.00 90 1019.9
20260506150018 11 306 0.0 8.0 0.00 0.00 0.00 90 1019.9
20260506145521 11 319 0.0 6.4 0.00 0.00 0.00 89 1019.9
20260506145017 11 60 0.0 4.8 0.00 0.00 0.00 89 1019.7
20260506144517 11 57 0.0 4.8 0.00 0.00 0.00 90 1019.6
20260506144020 11 50 1.6 4.8 0.00 0.00 0.00 90 1019.7
20260506143516 11 311 0.0 1.6 0.00 0.00 0.00 90 1019.9
20260506143018 11 311 0.0 6.4 0.00 0.00 0.00 90 1020.0
20260506142516 11 311 1.6 6.4 0.00 0.00 0.00 89 1020.0
20260506142015 11 311 4.8 6.4 0.00 0.00 0.00 89 1020.1
20260506141517 11 311 3.2 8.0 0.00 0.00 0.00 89 1020.0
20260506141015 11 311 1.6 9.7 0.00 0.00 0.00 90 1020.1
20260506140515 11 311 6.4 12.9 0.00 0.00 0.00 89 1020.0
20260506140019 11 311 8.0 14.5 0.00 0.00 0.00 89 1020.0
20260506135515 11 313 12.9 14.5 0.00 0.00 0.00 89 1020.0
20260506135013 11 314 8.0 12.9 0.00 0.00 0.00 90 1020.0
20260506134513 11 313 6.4 9.7 0.00 0.00 0.00 89 1019.8
20260506134011 11 235 3.2 4.8 0.00 0.00 0.00 89 1019.7
20260506133510 11 234 0.0 0.0 0.00 0.00 0.00 89 1019.6
20260506133014 11 234 0.0 0.0 0.00 0.00 0.00 89 1019.5
20260506132513 11 234 0.0 0.0 0.00 0.00 0.00 89 1019.6
20260506132010 11 234 0.0 0.0 0.00 0.00 0.00 89 1019.5
20260506131510 11 234 0.0 0.0 0.00 0.00 0.00 89 1019.4
20260506131009 11 234 0.0 4.8 0.00 0.00 0.00 89 1019.5
20260506130509 11 234 0.0 4.8 0.00 0.00 0.00 89 1019.5
20260506130012 11 184 0.0 1.6 0.00 0.03 0.00 89 1019.5
20260506125508 11 181 0.0 0.0 0.00 0.03 0.00 89 1019.5
20260506125012 11 171 0.0 0.0 0.00 0.03 0.00 89 1019.4
20260506124508 11 171 0.0 0.0 0.00 0.03 0.00 89 1019.3
20260506124006 11 171 0.0 0.0 0.00 0.03 0.00 89 1019.2
20260506123505 11 171 0.0 0.0 0.00 0.03 0.00 89 1019.1
20260506123007 11 171 0.0 0.0 0.00 0.03 0.00 89 1019.1
20260506122504 11 171 0.0 0.0 0.00 0.03 0.00 89 1019.1
20260506122007 11 171 0.0 6.4 0.00 0.03 0.00 89 1019.0
20260506121505 11 171 0.0 9.7 0.00 0.03 0.00 88 1019.0
20260506121003 11 169 6.4 9.7 0.00 0.03 0.00 88 1019.0
20260506120503 11 260 0.0 0.0 0.00 0.03 0.00 89 1019.0
20260506120003 11 260 0.0 1.6 0.00 0.03 0.00 89 1019.0
20260506115503 11 260 0.0 1.6 0.00 0.03 0.00 89 1019.0
20260506115002 11 260 0.0 0.0 0.00 0.03 0.00 89 1019.0
20260506114503 11 260 0.0 4.8 0.00 0.03 0.00 89 1018.9
20260506114003 11 260 0.0 4.8 0.00 0.03 0.00 89 1018.9
20260506113503 11 260 0.0 9.7 0.00 0.03 0.00 89 1018.9
20260506113001 11 258 1.6 9.7 0.00 0.03 0.00 89 1019.0
20260506112601 11 275 3.2 6.4 0.00 0.03 0.00 89 1018.9
20260506112100 12 291 0.0 1.6 0.00 0.03 0.00 89 1018.9
20260506111600 12 296 0.0 0.0 0.00 0.03 0.00 89 1018.8
20260506111101 12 296 0.0 0.0 0.00 0.03 0.00 89 1018.9
20260506110600 12 296 0.0 0.0 0.00 0.03 0.00 89 1018.9
20260506110100 11 296 0.0 0.0 0.00 0.03 0.00 89 1018.9
20260506105559 11 296 0.0 1.6 0.00 0.03 0.00 89 1018.8
20260506105104 11 296 0.0 12.9 0.00 0.03 0.00 89 1018.9
20260506104606 11 296 1.6 14.5 0.00 0.03 0.00 89 1018.8
20260506104101 11 302 11.3 14.5 0.00 0.03 0.00 89 1018.8
20260506103556 12 276 3.2 6.4 0.00 0.03 0.00 90 1018.7
20260506103059 12 275 3.2 6.4 0.00 0.03 0.00 90 1018.7
20260506102557 11 275 4.8 11.3 0.00 0.03 0.00 90 1018.6
20260506102055 11 295 3.2 12.9 0.00 0.03 0.00 89 1018.6
20260506101555 11 288 8.0 12.9 0.00 0.03 0.00 90 1018.5
20260506101054 11 271 8.0 12.9 0.00 0.03 0.00 90 1018.4
20260506100554 12 270 8.0 14.5 0.00 0.03 0.00 90 1018.4
20260506100108 11 270 9.7 14.5 0.00 0.03 0.00 90 1018.4
20260506095553 12 288 11.3 16.1 0.00 0.03 0.00 90 1018.4
20260506095054 12 275 12.9 16.1 0.00 0.03 0.00 90 1018.4
20260506094552 12 273 9.7 16.1 0.00 0.03 0.00 91 1018.3
20260506094050 11 278 11.3 17.7 0.00 0.03 0.00 91 1018.2
20260506093550 11 278 14.5 17.7 0.00 0.03 0.00 91 1018.2
20260506093049 11 286 11.3 16.1 0.00 0.03 0.00 91 1018.1
20260506092549 11 273 11.3 14.5 0.00 0.03 0.00 91 1018.1
20260506092048 11 275 9.7 14.5 0.00 0.03 0.00 91 1018.2
20260506091552 12 282 9.7 12.9 0.00 0.03 0.00 91 1018.1
20260506091046 12 78 0.0 0.0 0.00 0.03 0.00 91 1018.1
20260506090545 12 78 0.0 0.0 0.00 0.03 0.00 91 1018.1
20260506090044 12 78 0.0 0.0 0.00 0.03 0.00 91 1018.1
20260506085544 12 78 0.0 0.0 0.00 0.03 0.00 91 1017.9
20260506085044 12 78 0.0 0.0 0.00 0.03 0.00 91 1018.0
20260506084544 12 78 0.0 0.0 0.00 0.03 0.00 91 1017.9
20260506084043 12 78 0.0 0.0 0.00 0.03 0.00 91 1017.9
20260506083543 12 78 0.0 0.0 0.00 0.03 0.00 91 1017.9
20260506083043 12 78 0.0 0.0 0.00 0.03 0.00 91 1017.9
20260506082542 12 78 0.0 0.0 0.00 0.03 0.00 91 1017.9
20260506082041 12 78 0.0 0.0 0.00 0.03 0.00 91 1017.9
20260506081543 12 78 0.0 0.0 0.00 0.03 0.00 91 1017.8
20260506081041 12 78 0.0 0.0 0.00 0.03 0.00 91 1017.8
20260506080540 12 78 0.0 0.0 0.00 0.03 0.00 91 1017.7
20260506073035 12 78 0.0 0.0 0.00 0.03 0.00 91 1017.4
20260506072535 12 78 0.0 0.0 0.00 0.03 0.00 91 1017.3
20260506072035 12 78 0.0 0.0 0.00 0.03 0.00 91 1017.2
20260506071536 12 78 0.0 0.0 0.00 0.03 0.00 91 1017.2
20260506071033 12 78 0.0 3.2 0.00 0.03 0.00 91 1017.1
20260506070534 12 78 0.0 4.8 0.00 0.03 0.00 91 1017.1